logo
Rechercher aéroport 
image banner adimage banner adimage banner ad
image banner ad

64CA - Tahoe Forest Hospital

Situé à Truckee, United States

ICAO - 64CA, IATA -

Données fournies par Airmate  

Information générale

Coordonnées: N39°19'27" W120°12'1"
Élévation : 5200 feet MSL.
Variation magnétique : 16° East
Voir autres Aéroports à California

Données opérationnelles

Special qualification required
Heure actuelle UTC:
Heure actuelle locale:
Météo à : KTRK - Truckee-Tahoe ( 5 km )
METAR: KTRK 261545Z 00000KT 10SM CLR 09/07 A3031
TAF: KTRK 261120Z 2612/2712 VRB05KT P6SM VCFG SCT100 FM261600 VRB05KT P6SM SKC FM261900 23008G15KT P6SM SCT080 FM270300 VRB03KT P6SM FEW080
Voir NOTAMs / SUP AIP / TFR affectant cet aéroport [VIEW]
Fréquences de communication: [VIEW]

Pistes:

Coordonnées de l'aéroport

Adresse: Truckee United States

Vue satellite de 64CA